Flag for Canada Weather past 2 weeks in Saint John, New Brunswick, Canada

Now
70 °F

Passing clouds.


Feels Like: 70 °F
Forecast: 54 / 73 °F
Wind: 16 mph from Northwest

Location: Saint John

Current Time: Aug 31, 2015 at 11:34:54 PM

Latest Report: Aug 31, 2015 at 11:00 PM


Visibility: 15 mi

Pressure: 29.77 "Hg

Humidity: 69%

Dew point: 59 °F

Location of Saint JohnLocation

Historic Weather in Saint John — Graph

°F

Saint John temperature yesterday

Maximum temperature yesterday: 75 °F (at 1:00 PM)
Minimum temperature yesterday: 55 °F (at 12:00 AM)
Average temperature yesterday: 65 °F

Past Weeks' High & Low Weather Summary

 TemperatureHumidityPressure
High81 °F (Aug 18, 3:00 PM)100% (Aug 17, 1:00 AM)30.23 "Hg (Aug 17, 1:00 AM)
Low46 °F (Aug 29, 6:00 AM)44% (Aug 28, 4:00 PM)29.70 "Hg (Aug 31, 8:00 PM)
Average67 °F89%30.03 "Hg
* Reported Aug 16 10:00 PM — Aug 31 10:00 PM, Saint John, Weather by CustomWeather, © 2015

Note: Actual official high and low records may vary slightly from our data, if they occured in-between our weather recording intervals... More about our weather records

Advertising

Saint John weather history for previous 24 hours

 ConditionsComfort  
Time TempWeatherWind HumidityBarometerVisibility
10:00 PM
Mon, Aug 31
72 °FPassing clouds.13 mph69%29.75 "Hg15 mi
9:00 PM61 °FPassing clouds.6 mph94%29.72 "Hg15 mi
8:00 PM64 °FPassing clouds.5 mph88%29.70 "Hg15 mi
7:00 PM68 °FBroken clouds.7 mph78%29.71 "Hg15 mi
6:00 PM70 °FBroken clouds.20 mph69%29.71 "Hg15 mi
5:00 PM72 °FBroken clouds.14 mph69%29.72 "Hg15 mi
4:00 PM73 °FBroken clouds.16 mph69%29.74 "Hg15 mi
3:00 PM70 °FPartly sunny.15 mph78%29.77 "Hg15 mi
2:00 PM72 °FPartly sunny.17 mph73%29.79 "Hg15 mi
1:00 PM70 °FPartly sunny.14 mph73%29.82 "Hg15 mi
12:00 PM72 °FPartly sunny.15 mph69%29.84 "Hg15 mi
11:00 AM66 °FBroken clouds.7 mph83%29.86 "Hg15 mi
10:00 AM61 °FBroken clouds.8 mph94%29.87 "Hg15 mi
9:00 AM63 °FBroken clouds.9 mph100%29.88 "Hg15 mi
8:00 AM55 °FFog.5 mph100%29.90 "Hg0 mi
7:00 AM54 °FFog.5 mph100%29.91 "Hg0 mi
6:48 AM55 °FFog.5 mph100%29.91 "Hg0 mi
6:00 AM54 °FFog.3 mph100%29.91 "Hg1 mi
4:00 AM54 °FFog.3 mph100%29.93 "Hg1 mi
3:55 AM54 °FFog.3 mph100%29.93 "Hg1 mi
3:00 AM55 °FFog.5 mph100%29.94 "Hg0 mi
2:00 AM57 °FFog.5 mph100%29.96 "Hg0 mi
1:50 AM57 °FFog.2 mph100%29.96 "Hg0 mi
1:00 AM57 °FFog.6 mph100%29.96 "Hg1 mi
12:00 AM57 °FFog.8 mph100%29.97 "Hg6 mi
11:00 PM
Sun, Aug 30
59 °FPartly cloudy.5 mph94%29.97 "Hg15 mi
Weather by CustomWeather, © 2015

See weather overviewHow to use our weather pages